This is the latest recevied weather packets stored in our database for station/object KQ4UPF. If no packets are shown the sender has not sent any weather packets the latest 10 day(s).
| Time | Temp. | Humidity | Pressure | Rain* | Wind** | Luminosity | Snow |
|---|---|---|---|---|---|---|---|
| 1777933647 | 25° C | 40% | 1013.8 hPa | 0 mm | - | 308 W/m² | - |
| 1777933343 | 25.56° C | 39% | 1013.6 hPa | 0 mm | - | 328 W/m² | - |
| 1777933041 | 25.56° C | 40% | 1013.8 hPa | 0 mm | - | 341 W/m² | - |
| 1777932738 | 25.56° C | 40% | 1013.8 hPa | 0 mm | - | 162 W/m² | - |
| 1777932434 | 25.56° C | 40% | 1013.9 hPa | 0 mm | - | 376 W/m² | - |
| 1777932132 | 26.11° C | 38% | 1014 hPa | 0 mm | - | 392 W/m² | - |
| 1777931828 | 26.67° C | 33% | 1014 hPa | 0 mm | - | 412 W/m² | - |
| 1777931526 | 26.11° C | 33% | 1014.1 hPa | 0 mm | - | 431 W/m² | - |
| 1777931221 | 26.11° C | 35% | 1014 hPa | 0 mm | - | 450 W/m² | - |
| 1777930918 | 26.11° C | 31% | 1013.6 hPa | 0 mm | - | 475 W/m² | - |
| 1777930614 | 26.11° C | 35% | 1014 hPa | 0 mm | - | 494 W/m² | - |
| 1777930311 | 26.67° C | 36% | 1014.1 hPa | 0 mm | - | 508 W/m² | - |
| 1777930008 | 26.67° C | 35% | 1013.5 hPa | 0 mm | - | 524 W/m² | - |
| 1777929704 | 26.11° C | 44% | 1013.8 hPa | 0 mm | - | 542 W/m² | - |
| 1777929402 | 26.11° C | 43% | 1013.9 hPa | 0 mm | - | 569 W/m² | - |
| 1777929098 | 26.11° C | 40% | 1013.8 hPa | 0 mm | - | 576 W/m² | - |
| 1777928796 | 26.11° C | 39% | 1013.8 hPa | 0 mm | - | 602 W/m² | - |
| 1777928492 | 26.11° C | 41% | 1014 hPa | 0 mm | - | 640 W/m² | - |
| 1777928190 | 26.11° C | 51% | 1013.9 hPa | 0 mm | - | 563 W/m² | - |
| 1777927887 | 25.56° C | 39% | 1014.1 hPa | 0 mm | - | 686 W/m² | - |
| 1777927585 | 25.56° C | 47% | 1014.2 hPa | 0 mm | - | 703 W/m² | - |
| 1777927284 | 25.56° C | 42% | 1014.1 hPa | 0 mm | - | 286 W/m² | - |
| 1777926982 | 26.67° C | 48% | 1014 hPa | 0 mm | - | 674 W/m² | - |
| 1777926679 | 26.67° C | 42% | 1014 hPa | 0 mm | - | 721 W/m² | - |
| 1777926374 | 26.11° C | 41% | 1014.1 hPa | 0 mm | - | 759 W/m² | - |
* Rain latest hour (hover to see other rain measurements)
** Current wind speed in m/s (hover to see current wind gust speed)